FW0153 Weather Reports


time (UTC)temp
C
wind
direction
speed
KPH
gust
KPH
rain 1hr
cm
rain 24hr
cm
rain mn
cm
humidity
%
barometer
mb
20220525140005 20 181 0.0 0.0 0.00 0.28 0.00 91 1010.3
20220525135505 20 150 6.4 0.0 0.00 0.28 0.00 91 1010.6
20220525135005 19 165 6.4 0.0 0.00 0.28 0.00 91 1009.9
20220525134505 19 171 0.0 0.0 0.00 0.28 0.00 91 1010.6
20220525134005 19 174 0.0 0.0 0.00 0.28 0.00 91 1010.3
20220525133505 19 184 6.4 0.0 0.00 0.28 0.00 91 1010.3
20220525133005 19 153 6.4 0.0 0.00 0.28 0.00 91 1009.9
20220525132505 19 105 6.4 0.0 0.00 0.28 0.00 91 1009.9
20220525132005 19 169 6.4 0.0 0.00 0.28 0.00 91 1009.6
20220525131505 18 125 0.0 0.0 0.00 0.28 0.00 91 1009.6
20220525131004 18 141 6.4 0.0 0.00 0.28 0.00 91 1009.6
20220525130505 18 94 14.5 0.0 0.00 0.28 0.00 91 1009.6
20220525130005 18 101 6.4 0.0 0.00 0.28 0.00 91 1009.3
20220525125505 18 186 14.5 0.0 0.00 0.28 0.00 91 1009.6
20220525125005 18 106 14.5 0.0 0.00 0.28 0.00 91 1009.3
20220525124505 18 123 6.4 0.0 0.00 0.28 0.00 91 1009.6
20220525124004 18 32 14.5 0.0 0.00 0.28 0.00 91 1009.3
20220525123505 18 125 20.9 0.0 0.00 0.28 0.00 91 1009.3
20220525123005 18 116 14.5 0.0 0.00 0.28 0.00 91 1009.3
20220525122505 18 110 6.4 0.0 0.00 0.28 0.00 91 1009.6
20220525122005 18 143 6.4 0.0 0.00 0.28 0.00 91 1009.9
20220525121505 18 65 6.4 0.0 0.00 0.28 0.00 91 1010.3
20220525121005 18 156 6.4 0.0 0.00 0.28 0.00 90 1010.6
20220525120505 18 188 14.5 0.0 0.00 0.28 0.00 90 1010.3
20220525120005 18 49 37.0 0.0 0.00 0.28 0.00 90 1010.6
20220525115505 18 81 6.4 0.0 0.00 0.28 0.00 90 1010.3
20220525115005 18 46 29.0 0.0 0.00 0.28 0.00 90 1009.9
20220525114505 18 110 14.5 0.0 0.30 0.28 0.00 90 1010.6
20220525114005 18 149 6.4 0.0 0.30 0.28 0.00 90 1010.6
20220525113505 18 96 14.5 0.0 0.48 0.23 0.00 90 1011.0
20220525113004 18 107 20.9 0.0 0.61 0.23 0.00 89 1010.6
20220525112505 18 332 20.9 0.0 0.30 0.15 0.00 89 1011.0
20220525112005 18 110 29.0 0.0 0.48 0.13 0.00 88 1011.0
20220525111505 18 179 29.0 0.0 0.61 12.06 0.00 88 1010.6
20220525111005 20 72 43.5 0.0 0.30 12.01 0.00 87 1010.6
20220525110505 20 160 59.5 0.0 0.00 11.96 0.00 86 1010.6
20220525110005 23 328 59.5 0.0 0.00 11.96 0.00 87 1009.9
20220525105505 23 67 6.4 0.0 0.00 11.96 0.00 89 1009.6
20220525105005 23 327 37.0 0.0 0.00 11.96 0.00 89 1008.9
20220525104505 23 23 20.9 0.0 0.00 11.96 0.00 89 1008.6
20220525104005 23 55 20.9 0.0 0.00 11.96 0.00 90 1007.9
20220525103505 23 96 6.4 0.0 0.00 11.96 0.00 90 1007.6
20220525103005 23 145 6.4 0.0 0.00 11.96 0.00 90 1007.2
20220525102505 23 343 14.5 0.0 0.00 11.96 0.00 90 1007.2
20220525102005 23 43 14.5 0.0 0.00 11.96 0.00 90 1006.9
20220525101505 23 91 0.0 0.0 0.00 11.96 0.00 90 1006.5
20220525101005 23 51 0.0 0.0 0.00 11.96 0.00 90 1006.5
20220525100504 23 103 0.0 0.0 0.00 11.96 0.00 90 1006.2
20220525100005 23 155 6.4 0.0 0.00 11.96 0.00 90 1006.2
20220525095505 23 157 6.4 0.0 0.00 11.96 0.00 90 1005.9
20220525095005 23 141 0.0 0.0 0.00 11.96 0.00 90 1005.5
20220525094505 23 166 0.0 0.0 0.00 11.96 0.00 90 1005.2
20220525094004 23 180 6.4 0.0 0.00 11.96 0.00 90 1004.8
20220525093505 23 158 14.5 0.0 0.00 11.96 0.00 90 1005.2
20220525093005 23 184 6.4 0.0 0.00 11.96 0.00 90 1004.8
20220525092505 23 119 6.4 0.0 0.00 11.96 0.00 90 1005.2
20220525092005 23 114 14.5 0.0 0.00 11.96 0.00 90 1005.2
20220525091505 23 145 0.0 0.0 0.00 11.96 0.00 90 1004.5
20220525091004 23 191 29.0 0.0 0.00 11.96 0.00 90 1004.8
20220525090505 23 147 6.4 0.0 0.00 11.96 0.00 89 1004.5
20220525090005 23 99 14.5 0.0 0.00 11.96 0.00 89 1004.8
20220525085505 23 179 20.9 0.0 0.00 11.96 0.00 89 1004.8
20220525085005 23 93 14.5 0.0 0.00 11.96 0.00 89 1005.2
20220525084505 23 206 6.4 0.0 0.00 11.96 0.00 89 1005.2
20220525084005 23 150 29.0 0.0 0.00 11.96 0.00 89 1005.2
20220525083505 23 207 6.4 0.0 0.00 11.96 0.00 89 1005.2
20220525083005 23 136 20.9 0.0 0.00 11.96 0.00 89 1005.5
20220525082505 23 167 6.4 0.0 0.00 11.96 0.00 88 1005.5
20220525082005 23 146 6.4 0.0 0.00 11.96 0.00 88 1005.2
20220525081505 23 127 29.0 0.0 0.00 11.96 0.00 88 1005.5
20220525081004 23 96 43.5 0.0 0.00 11.96 0.00 88 1005.5
20220525080505 23 172 0.0 0.0 0.00 11.96 0.00 88 1005.5
20220525080005 23 101 14.5 0.0 0.00 11.96 0.00 88 1005.9
20220525075505 23 142 20.9 0.0 0.00 11.96 0.00 88 1005.9
20220525075005 23 198 6.4 0.0 0.00 11.96 0.00 88 1005.9
20220525074504 23 181 0.0 0.0 0.00 11.96 0.00 88 1005.9
20220525074005 23 174 0.0 0.0 0.00 11.96 0.00 88 1005.9
20220525073505 23 127 20.9 0.0 0.00 11.96 0.00 88 1006.2
20220525073005 23 169 0.0 0.0 0.00 11.96 0.00 88 1005.9
20220525072505 23 180 0.0 0.0 0.00 11.96 0.00 88 1006.2
20220525072005 23 159 0.0 0.0 0.00 11.96 0.00 88 1006.2
20220525071505 23 163 0.0 0.0 0.00 11.96 0.00 88 1006.5
20220525071005 23 104 6.4 0.0 0.00 11.96 0.00 88 1006.2
20220525070504 23 175 6.4 0.0 0.00 11.96 0.00 88 1006.2
20220525070005 23 163 0.0 0.0 0.00 11.96 0.00 88 1005.9
20220525065505 23 81 29.0 0.0 0.00 11.96 0.00 88 1005.9
20220525065005 23 121 14.5 0.0 0.00 11.96 0.00 88 1005.9
20220525064505 23 183 6.4 0.0 0.00 11.96 0.00 87 1006.2
20220525064005 23 171 37.0 0.0 0.00 11.96 0.00 87 1005.9
20220525063504 23 148 37.0 0.0 0.00 11.96 0.00 87 1006.2
20220525063005 23 186 6.4 0.0 0.00 11.96 0.00 87 1006.2
20220525062505 23 173 29.0 0.0 0.00 11.96 0.00 87 1005.5
20220525062005 23 135 51.5 0.0 0.00 11.96 0.00 87 1005.9
20220525061505 23 105 37.0 0.0 0.00 11.96 0.00 87 1005.5
20220525061005 23 90 6.4 0.0 0.00 11.96 0.00 87 1005.5
20220525060504 23 136 14.5 0.0 0.00 11.96 0.00 87 1005.5
20220525060005 23 168 20.9 0.0 0.00 11.96 0.00 87 1005.5
20220525055505 23 88 14.5 0.0 0.00 11.96 0.00 86 1005.5
20220525055005 23 151 29.0 0.0 0.00 11.96 0.00 86 1005.5
20220525054505 23 141 6.4 0.0 0.00 11.96 0.00 86 1005.5
20220525054004 23 97 66.0 0.0 0.00 11.96 0.00 86 1005.5
20220525053505 23 89 29.0 0.0 0.00 11.96 0.00 86 1005.5
20220525053005 23 146 20.9 0.0 0.00 11.96 0.00 86 1005.9
20220525052505 23 223 14.5 0.0 0.00 11.96 0.00 86 1005.9
20220525052005 23 175 6.4 0.0 0.00 11.96 0.00 86 1006.2
20220525051505 23 148 20.9 0.0 0.00 11.96 0.00 86 1006.2
20220525051005 23 133 37.0 0.0 0.00 11.96 0.00 86 1006.2
20220525050504 23 105 20.9 0.0 0.00 11.96 0.00 86 1006.2
20220525045526 23 100 20.9 0.0 0.00 11.96 0.00 85 1006.5
20220525045029 23 107 20.9 0.0 0.00 11.96 0.00 85 1006.5
20220525044507 23 167 6.4 0.0 0.00 11.96 0.00 85 1006.2
20220525044008 23 242 14.5 0.0 0.00 11.96 0.00 85 1006.2
20220525043511 23 217 6.4 0.0 0.00 11.96 0.00 85 1006.5
20220525043009 23 213 6.4 0.0 0.00 11.96 0.00 85 1006.5
20220525042517 23 191 6.4 0.0 0.00 11.96 0.00 85 1006.5
20220525042020 23 194 0.0 0.0 0.00 11.96 0.00 85 1006.5
20220525041523 23 187 20.9 0.0 0.00 11.96 0.00 84 1006.5
20220525041026 23 254 20.9 0.0 0.00 11.96 0.00 84 1006.2
20220525040506 23 93 20.9 0.0 0.00 11.96 0.00 84 1006.2
20220525040007 23 217 20.9 0.0 0.00 11.96 0.00 84 1005.9
20220525035508 23 96 14.5 0.0 0.00 11.96 0.00 84 1005.9
20220525035011 23 174 14.5 0.0 0.00 11.96 0.00 84 1005.9
20220525034514 23 178 37.0 0.0 0.00 11.96 0.00 84 1005.9
20220525034017 23 111 51.5 0.0 0.00 11.96 0.00 84 1005.9
20220525033520 23 166 14.5 0.0 0.00 11.96 0.00 83 1005.9
20220525033023 23 123 29.0 0.0 0.00 11.96 0.00 83 1005.5
20220525032526 23 130 20.9 0.0 0.00 11.96 0.00 83 1005.9
20220525032029 23 63 20.9 0.0 0.00 11.96 0.00 83 1005.9
20220525031532 23 105 6.4 0.0 0.00 11.96 0.00 83 1006.2
20220525031008 23 181 6.4 0.0 0.00 11.96 0.00 83 1005.9
20220525030511 23 224 14.5 0.0 0.00 11.96 0.00 83 1005.9
20220525030014 23 202 0.0 0.0 0.00 11.96 0.00 83 1006.2
20220525025517 23 109 20.9 0.0 0.00 11.96 0.00 82 1006.2
20220525025020 23 138 20.9 0.0 0.00 11.96 0.00 82 1005.9
20220525024523 23 204 37.0 0.0 0.00 11.96 0.00 82 1005.9
20220525024026 23 157 6.4 0.0 0.00 11.96 0.00 82 1005.5
20220525023529 23 154 20.9 0.0 0.00 11.96 0.00 82 1004.8
20220525023032 23 74 6.4 0.0 0.00 11.96 0.00 82 1004.5
20220525022508 23 241 20.9 0.0 0.00 11.96 0.00 82 1004.5
20220525022011 23 152 14.5 0.0 0.00 11.96 0.00 81 1004.5
20220525021514 23 166 20.9 0.0 0.00 11.96 0.00 81 1004.2
20220525021017 23 152 14.5 0.0 0.00 11.96 0.00 81 1004.2
20220525020507 24 183 59.5 0.0 0.00 11.96 0.00 81 1004.2
20220525020023 24 149 37.0 0.0 0.00 11.96 0.00 80 1003.8
20220525015526 24 226 37.0 0.0 0.00 11.96 0.00 80 1004.2
20220525015027 24 176 29.0 0.0 0.00 11.96 0.00 79 1003.8
20220525014532 25 151 29.0 0.0 0.00 11.96 0.00 78 1003.8
20220525014008 25 159 51.5 0.0 0.00 11.96 0.00 78 1003.8
20220525013507 25 143 37.0 0.0 0.00 11.96 0.00 77 1003.5
20220525013014 25 151 37.0 0.0 0.00 11.96 0.00 77 1003.8
20220525012517 25 129 37.0 0.0 0.00 11.96 0.00 76 1004.2
20220525012020 25 97 37.0 0.0 0.00 11.96 0.00 76 1004.5
20220525011523 25 131 43.5 0.0 0.00 11.96 0.00 75 1004.5
20220525011026 25 72 37.0 0.0 0.00 11.96 0.00 75 1004.2
20220525010529 25 96 20.9 0.0 0.00 11.96 0.00 75 1004.5
20220525010027 25 171 29.0 0.0 0.00 11.96 0.00 74 1004.5
20220525005508 25 121 66.0 0.0 0.00 11.96 0.00 74 1004.5
20220525005011 25 116 37.0 0.0 0.00 11.96 0.00 74 1004.2
20220525004514 25 145 6.4 0.0 0.00 11.96 0.00 74 1004.5
20220525004017 25 154 20.9 0.0 0.00 11.96 0.00 73 1004.5
20220525003519 25 143 20.9 0.0 0.00 11.96 0.00 73 1004.5
20220525003022 26 180 6.4 0.0 0.00 11.96 0.00 73 1004.5
20220525002526 26 108 20.9 0.0 0.00 11.96 0.00 72 1004.5
20220525002022 26 165 20.9 0.0 0.00 11.96 0.00 71 1005.2
20220525001532 26 99 20.9 0.0 0.00 11.96 0.00 70 1004.8
20220525001008 26 103 29.0 0.0 0.00 11.96 0.00 70 1004.5
20220525000511 26 92 29.0 0.0 0.00 11.96 0.00 69 1004.2
20220525000014 26 207 20.9 0.0 0.00 11.96 0.00 69 1004.2
20220524235517 26 111 43.5 0.0 0.00 11.96 0.00 68 1004.5
20220524235020 26 210 29.0 0.0 0.00 11.96 0.00 68 1004.5
20220524234523 26 145 43.5 0.0 0.00 11.96 0.00 67 1004.5
20220524234019 27 207 43.5 0.0 0.00 11.96 0.00 66 1004.5
20220524233529 27 219 20.9 0.0 0.00 11.96 0.00 65 1004.5
20220524233015 27 205 43.5 0.0 0.00 11.96 0.00 65 1004.5
20220524232508 27 195 29.0 0.0 0.00 11.96 0.00 65 1004.2
20220524232011 27 233 29.0 0.0 0.00 11.96 0.00 65 1004.5
20220524231514 27 266 29.0 0.0 0.00 11.96 0.00 64 1004.5
20220524231017 27 63 20.9 0.0 0.00 11.96 0.00 65 1004.8
20220524230512 27 222 37.0 0.0 0.00 11.96 0.00 64 1004.8
20220524230014 27 194 59.5 0.0 0.00 11.96 0.00 64 1004.8
20220524225526 28 174 66.0 0.0 0.00 11.96 0.00 64 1004.5
20220524225011 28 260 37.0 0.0 0.00 11.96 0.00 63 1004.8
20220524224532 28 194 14.5 0.0 0.00 11.96 0.00 63 1004.8
20220524224008 28 77 29.0 0.0 0.00 11.96 0.00 63 1004.8
20220524223508 28 237 6.4 0.0 0.00 11.96 0.00 64 1004.5
20220524223007 28 205 29.0 0.0 0.00 11.96 0.00 63 1004.5
20220524222517 28 128 37.0 0.0 0.00 11.96 0.00 63 1004.5
20220524222009 28 308 37.0 0.0 0.00 11.96 0.00 63 1004.5
20220524221523 28 228 43.5 0.0 0.00 11.96 0.00 63 1004.5
20220524221009 28 226 43.5 0.0 0.00 11.96 0.00 62 1004.5
20220524220529 28 216 20.9 0.0 0.00 11.96 0.00 63 1004.5
20220524220005 28 211 51.5 0.0 0.00 11.96 0.00 63 1004.5
20220524215505 28 139 37.0 0.0 0.00 11.96 0.00 64 1004.5
20220524215004 28 226 20.9 0.0 0.00 11.96 0.00 63 1004.5
20220524214505 28 181 14.5 0.0 0.00 11.96 0.00 64 1004.5
20220524214005 28 224 59.5 0.0 0.00 11.96 0.00 64 1004.5
20220524213505 28 212 37.0 0.0 0.00 11.96 0.00 62 1004.5
20220524213005 28 163 37.0 0.0 0.00 11.96 0.00 61 1004.5
20220524212505 28 168 20.9 0.0 0.00 11.96 0.00 61 1004.5
20220524212005 28 170 51.5 0.0 0.00 11.96 0.00 61 1004.5
20220524211505 28 160 29.0 0.0 0.00 11.96 0.00 62 1004.5
20220524211005 28 202 37.0 0.0 0.00 11.96 0.00 61 1004.8
20220524210505 28 182 20.9 0.0 0.00 11.96 0.00 61 1005.2
20220524210005 28 182 43.5 0.0 0.00 11.96 0.00 62 1005.2
20220524205505 28 201 43.5 0.0 0.00 11.96 0.00 61 1005.2
20220524205005 28 156 29.0 0.0 0.00 11.96 0.00 61 1005.2
20220524204505 28 252 37.0 0.0 0.00 11.96 0.00 63 1005.2
20220524204005 28 178 37.0 0.0 0.00 11.96 0.00 63 1005.2
20220524203505 28 223 37.0 0.0 0.00 11.96 0.00 62 1005.5
20220524203005 28 99 43.5 0.0 0.00 11.96 0.00 62 1005.5
20220524202504 28 127 29.0 0.0 0.00 11.96 0.00 62 1005.5
20220524202005 28 94 29.0 0.0 0.00 11.96 0.00 61 1005.9
20220524201505 28 189 29.0 0.0 0.00 11.96 0.00 63 1005.9
20220524201005 28 108 20.9 0.0 0.00 11.96 0.00 64 1005.9
20220524200505 28 243 74.0 0.0 0.00 11.96 0.00 63 1006.2
20220524200005 28 226 20.9 0.0 0.00 11.96 0.00 64 1005.9
20220524195505 28 198 20.9 0.0 0.00 11.96 0.00 63 1006.2
20220524195005 28 194 37.0 0.0 0.00 11.96 0.00 64 1005.9
20220524194505 28 204 66.0 0.0 0.00 11.96 0.00 63 1006.2
20220524194005 28 97 59.5 0.0 0.00 11.96 0.00 63 1006.2
20220524193505 28 58 37.0 0.0 0.00 11.96 0.00 64 1006.2
20220524193005 28 129 51.5 0.0 0.00 11.96 0.00 64 1006.5
20220524192505 27 154 37.0 0.0 0.00 11.96 0.00 65 1006.5
20220524192005 27 223 20.9 0.0 0.00 11.96 0.00 65 1006.5
20220524191504 27 145 14.5 0.0 0.00 11.96 0.00 65 1006.5
20220524191005 27 223 43.5 0.0 0.00 11.96 0.00 65 1006.9
20220524190505 27 168 29.0 0.0 0.00 11.96 0.00 66 1006.9
20220524190005 26 126 37.0 0.0 0.00 11.96 0.00 66 1006.9
20220524185505 26 128 20.9 0.0 0.00 11.96 0.00 67 1007.2
20220524185005 26 218 20.9 0.0 0.00 11.96 0.00 66 1007.2
20220524184504 26 217 20.9 0.0 0.00 11.96 0.00 68 1007.6
20220524184005 25 198 20.9 0.0 0.00 11.96 0.00 67 1007.6
20220524183505 25 93 6.4 0.0 0.00 11.96 0.00 70 1007.9
20220524183005 25 226 37.0 0.0 0.00 11.96 0.00 68 1007.9
20220524182505 25 100 20.9 0.0 0.00 11.96 0.00 68 1007.9
20220524182005 25 231 14.5 0.0 0.00 11.96 0.00 69 1007.9
20220524181504 25 128 29.0 0.0 0.00 11.96 0.00 67 1007.9
20220524181005 25 89 20.9 0.0 0.00 11.96 0.00 68 1007.9
20220524180505 25 204 14.5 0.0 0.00 11.96 0.00 69 1008.2
20220524180005 25 185 20.9 0.0 0.00 11.96 0.00 69 1008.2
20220524175505 25 148 29.0 0.0 0.00 11.96 0.00 70 1007.9
20220524175005 23 117 20.9 0.0 0.00 11.96 0.00 73 1008.2
20220524174505 23 218 20.9 0.0 0.00 11.96 0.00 74 1008.2
20220524174005 23 103 6.4 0.0 0.00 11.96 0.00 73 1008.2
20220524173505 23 161 14.5 0.0 0.00 11.96 0.00 75 1008.6
20220524173004 23 141 20.9 0.0 0.00 11.96 0.00 76 1008.9
20220524172505 22 231 14.5 0.0 0.00 11.96 0.00 78 1008.6
20220524172005 22 166 20.9 0.0 0.00 11.96 0.00 79 1008.9
20220524171505 22 160 6.4 0.0 0.00 11.96 0.00 80 1008.9
20220524171005 22 236 6.4 0.0 0.00 11.96 0.00 82 1008.9
20220524170505 22 149 20.9 0.0 0.00 11.96 0.00 83 1008.9
20220524170004 22 97 14.5 0.0 0.00 11.96 0.00 84 1008.9
20220524165505 21 172 6.4 0.0 0.00 11.96 0.00 86 1008.6
20220524165005 21 218 20.9 0.0 0.00 11.96 0.00 87 1008.2
20220524164505 21 221 6.4 0.0 0.00 11.96 0.00 88 1007.9
20220524164005 21 206 0.0 0.0 0.00 11.96 0.00 88 1007.9
20220524163505 21 215 6.4 0.0 0.00 11.96 0.00 89 1007.6
20220524163004 21 235 6.4 0.0 0.00 11.96 0.00 90 1007.9
20220524162505 21 207 0.0 0.0 0.00 11.96 0.00 90 1007.6
20220524162005 20 220 14.5 0.0 0.00 11.96 0.00 90 1007.6
20220524161505 21 223 6.4 0.0 0.00 11.96 0.00 90 1007.6
20220524161005 20 175 0.0 0.0 0.00 11.96 0.00 91 1007.2
20220524160505 20 203 6.4 0.0 0.00 11.96 0.00 91 1007.6
20220524160005 20 242 6.4 0.0 0.00 11.96 0.00 91 1007.6
20220524155505 20 220 6.4 0.0 0.00 11.96 0.00 91 1007.6
20220524155004 20 216 0.0 0.0 0.00 11.96 0.00 92 1007.9
20220524154505 20 200 6.4 0.0 0.00 11.96 0.00 92 1007.6
20220524154005 20 202 14.5 0.0 0.00 11.96 0.00 92 1007.9
20220524153505 20 206 0.0 0.0 0.00 11.96 0.00 92 1007.9
20220524153005 20 203 6.4 0.0 0.00 11.96 0.00 92 1007.9
20220524152504 20 98 14.5 0.0 0.00 11.96 0.00 92 1007.2
20220524152005 20 213 0.0 0.0 0.00 11.96 0.00 92 1007.2
20220524151505 20 194 0.0 0.0 0.00 11.96 0.00 92 1007.2
20220524151005 20 161 0.0 0.0 0.00 11.96 0.00 92 1007.2
20220524150505 20 183 6.4 0.0 0.00 11.96 0.00 92 1007.2
20220524150006 20 84 0.0 0.0 0.00 11.96 0.00 92 1006.5
20220524145505 20 177 6.4 0.0 0.00 11.96 0.00 92 1006.9
20220524145005 20 129 6.4 0.0 0.00 11.96 0.00 92 1006.9
20220524144505 19 95 14.5 0.0 0.00 11.96 0.00 92 1007.2
20220524144005 19 161 20.9 0.0 0.00 11.96 0.00 92 1006.5
20220524143505 19 90 14.5 0.0 0.00 11.96 0.00 92 1006.9
20220524143005 19 65 14.5 0.0 0.00 11.96 0.00 92 1006.9
20220524142505 19 207 14.5 0.0 0.00 11.96 0.00 92 1005.9
20220524142004 19 178 6.4 0.0 0.00 11.96 0.00 92 1005.5
20220524141505 18 37 20.9 0.0 0.00 11.96 0.00 92 1005.9
20220524141005 18 123 14.5 0.0 0.00 11.96 0.00 92 1006.2
20220524140505 18 254 20.9 0.0 0.00 11.96 0.00 93 1006.2